| time (UTC) | temp C | wind direction | speed KPH | gust KPH | rain 1hr cm | rain 24hr cm | rain mn cm | humidity % | barometer mb |
| 20260502170132 | 13 | 195 | 0.0 | 0.0 | 0.00 | 0.00 | 0.00 | 86 | 1006.3 |
| 20260502164118 | 12 | 236 | 1.6 | 3.2 | 0.00 | 0.00 | 0.00 | 85 | 1006.3 |
| 20260502163615 | 12 | 192 | 0.0 | 1.6 | 0.00 | 0.00 | 0.00 | 86 | 1006.2 |
| 20260502163111 | 12 | 192 | 0.0 | 1.6 | 0.00 | 0.00 | 0.00 | 86 | 1006.5 |
| 20260502162608 | 12 | 195 | 0.0 | 0.0 | 0.00 | 0.00 | 0.00 | 86 | 1006.5 |
| 20260502162106 | 12 | 203 | 0.0 | 0.0 | 0.00 | 0.00 | 0.00 | 87 | 1006.2 |
| 20260502161602 | 12 | 194 | 0.0 | 0.0 | 0.00 | 0.00 | 0.00 | 88 | 1006.2 |
| 20260502161059 | 12 | 194 | 0.0 | 1.6 | 0.00 | 0.00 | 0.00 | 88 | 1006.3 |
| 20260502160557 | 12 | 186 | 0.0 | 1.6 | 0.00 | 0.00 | 0.00 | 88 | 1006.1 |
| 20260502152010 | 11 | 187 | 0.0 | 0.0 | 0.00 | 0.00 | 0.00 | 94 | 1006.0 |
| 20260502151507 | 11 | 216 | 0.0 | 1.6 | 0.00 | 0.00 | 0.00 | 94 | 1006.0 |
| 20260502151004 | 11 | 208 | 0.0 | 0.0 | 0.00 | 0.00 | 0.00 | 93 | 1005.9 |
| 20260502150502 | 11 | 235 | 0.0 | 1.6 | 0.00 | 0.00 | 0.00 | 92 | 1006.0 |
| 20260502130341 | 11 | 209 | 0.0 | 0.0 | 0.00 | 0.00 | 0.00 | 95 | 1005.3 |
| 20260502123324 | 11 | 196 | 0.0 | 0.0 | 0.00 | 0.00 | 0.00 | 94 | 1005.0 |
| 20260502122821 | 11 | 194 | 0.0 | 1.6 | 0.00 | 0.00 | 0.00 | 94 | 1005.0 |
| 20260502122316 | 11 | 196 | 0.0 | 0.0 | 0.00 | 0.00 | 0.00 | 94 | 1004.9 |
| 20260502121815 | 11 | 198 | 0.0 | 0.0 | 0.00 | 0.00 | 0.00 | 94 | 1004.9 |
| 20260502121312 | 11 | 183 | 0.0 | 1.6 | 0.00 | 0.00 | 0.00 | 94 | 1004.9 |
| 20260502120809 | 11 | 210 | 0.0 | 0.0 | 0.00 | 0.00 | 0.00 | 94 | 1005.0 |
| 20260502120305 | 11 | 211 | 0.0 | 1.6 | 0.00 | 0.00 | 0.00 | 94 | 1005.0 |
| 20260502115803 | 11 | 178 | 0.0 | 0.0 | 0.00 | 0.00 | 0.00 | 94 | 1004.9 |
| 20260502115300 | 11 | 200 | 0.0 | 0.0 | 0.00 | 0.00 | 0.00 | 94 | 1005.0 |
| 20260502114755 | 11 | 193 | 0.0 | 0.0 | 0.00 | 0.00 | 0.00 | 94 | 1004.9 |
| 20260502114252 | 11 | 188 | 0.0 | 1.6 | 0.00 | 0.00 | 0.00 | 94 | 1004.8 |
| 20260502113750 | 11 | 225 | 0.0 | 1.6 | 0.00 | 0.00 | 0.00 | 95 | 1004.9 |
| 20260502113248 | 11 | 203 | 0.0 | 0.0 | 0.00 | 0.00 | 0.00 | 95 | 1004.8 |
| 20260502112745 | 11 | 220 | 3.2 | 3.2 | 0.00 | 0.00 | 0.00 | 94 | 1004.9 |
| 20260502112243 | 11 | 216 | 0.0 | 0.0 | 0.00 | 0.00 | 0.00 | 94 | 1004.8 |
| 20260502111740 | 11 | 255 | 0.0 | 3.2 | 0.00 | 0.00 | 0.00 | 94 | 1004.6 |
| 20260502111237 | 11 | 191 | 0.0 | 1.6 | 0.00 | 0.00 | 0.00 | 94 | 1004.6 |
| 20260502110735 | 11 | 184 | 0.0 | 0.0 | 0.00 | 0.00 | 0.00 | 94 | 1004.7 |
| 20260502110232 | 11 | 192 | 0.0 | 0.0 | 0.00 | 0.00 | 0.00 | 94 | 1004.6 |
| 20260502105731 | 11 | 183 | 0.0 | 0.0 | 0.00 | 0.00 | 0.00 | 94 | 1004.8 |
| 20260502105226 | 11 | 196 | 0.0 | 0.0 | 0.00 | 0.00 | 0.00 | 94 | 1004.8 |
| 20260502104724 | 11 | 202 | 0.0 | 0.0 | 0.00 | 0.00 | 0.00 | 94 | 1004.7 |
| 20260502104221 | 11 | 193 | 0.0 | 0.0 | 0.00 | 0.00 | 0.00 | 94 | 1005.0 |
| 20260502103719 | 11 | 164 | 1.6 | 3.2 | 0.00 | 0.00 | 0.00 | 94 | 1005.0 |
| 20260502103217 | 11 | 206 | 0.0 | 0.0 | 0.00 | 0.00 | 0.00 | 94 | 1005.0 |
| 20260502102713 | 11 | 190 | 0.0 | 1.6 | 0.00 | 0.00 | 0.00 | 94 | 1004.9 |
| 20260502102210 | 11 | 83 | 0.0 | 1.6 | 0.00 | 0.00 | 0.00 | 94 | 1004.9 |
| 20260502101708 | 11 | 203 | 0.0 | 0.0 | 0.00 | 0.00 | 0.00 | 94 | 1005.0 |
| 20260502101206 | 11 | 184 | 0.0 | 0.0 | 0.00 | 0.00 | 0.00 | 95 | 1005.0 |
| 20260502100704 | 11 | 205 | 0.0 | 0.0 | 0.00 | 0.00 | 0.00 | 94 | 1005.1 |
| 20260502100202 | 11 | 201 | 0.0 | 0.0 | 0.00 | 0.00 | 0.00 | 94 | 1005.3 |
| 20260502091136 | 11 | 190 | 0.0 | 0.0 | 0.00 | 0.00 | 0.00 | 94 | 1005.3 |
| 20260502090633 | 11 | 221 | 0.0 | 1.6 | 0.00 | 0.00 | 0.00 | 94 | 1005.6 |
| 20260502090130 | 11 | 189 | 0.0 | 0.0 | 0.00 | 0.00 | 0.00 | 94 | 1005.4 |
| 20260502071521 | 12 | 173 | 0.0 | 0.0 | 0.00 | 0.00 | 0.00 | 93 | 1005.8 |
| 20260502071020 | 11 | 249 | 0.0 | 0.0 | 0.00 | 0.00 | 0.00 | 94 | 1005.6 |
| 20260502070517 | 11 | 213 | 0.0 | 1.6 | 0.00 | 0.00 | 0.00 | 94 | 1005.7 |
| 20260502070016 | 11 | 206 | 0.0 | 0.0 | 0.00 | 0.00 | 0.00 | 94 | 1005.9 |
| 20260502065514 | 11 | 210 | 0.0 | 0.0 | 0.00 | 0.00 | 0.00 | 94 | 1005.8 |
| 20260502065011 | 11 | 205 | 0.0 | 0.0 | 0.00 | 0.00 | 0.00 | 94 | 1005.7 |
| 20260502064509 | 12 | 192 | 0.0 | 0.0 | 0.00 | 0.00 | 0.00 | 93 | 1005.4 |
| 20260502064006 | 11 | 187 | 0.0 | 0.0 | 0.00 | 0.00 | 0.00 | 94 | 1005.6 |
| 20260502063504 | 11 | 200 | 0.0 | 0.0 | 0.00 | 0.00 | 0.00 | 96 | 1005.7 |
| 20260502063001 | 11 | 200 | 0.0 | 0.0 | 0.00 | 0.00 | 0.00 | 96 | 1005.8 |
| 20260502062458 | 11 | 200 | 0.0 | 0.0 | 0.00 | 0.00 | 0.00 | 96 | 1005.7 |
| 20260502061957 | 11 | 210 | 0.0 | 0.0 | 0.00 | 0.00 | 0.00 | 97 | 1005.6 |
| 20260502061454 | 11 | 210 | 0.0 | 0.0 | 0.00 | 0.00 | 0.00 | 97 | 1005.9 |
| 20260502060950 | 11 | 211 | 0.0 | 0.0 | 0.00 | 0.00 | 0.00 | 97 | 1005.7 |
| 20260502060446 | 11 | 210 | 0.0 | 0.0 | 0.00 | 0.00 | 0.00 | 96 | 1005.8 |
| 20260502055943 | 11 | 210 | 0.0 | 0.0 | 0.00 | 0.00 | 0.00 | 96 | 1005.9 |
| 20260502055440 | 11 | 211 | 0.0 | 0.0 | 0.00 | 0.00 | 0.00 | 96 | 1006.2 |
| 20260502054935 | 11 | 211 | 0.0 | 0.0 | 0.00 | 0.00 | 0.00 | 96 | 1006.0 |
| 20260502054432 | 11 | 200 | 0.0 | 0.0 | 0.00 | 0.00 | 0.00 | 96 | 1005.9 |
| 20260502053924 | 11 | 200 | 0.0 | 0.0 | 0.00 | 0.00 | 0.00 | 96 | 1006.1 |
| 20260502053421 | 11 | 207 | 0.0 | 0.0 | 0.00 | 0.00 | 0.00 | 96 | 1006.0 |
| 20260502052918 | 11 | 207 | 0.0 | 0.0 | 0.00 | 0.00 | 0.00 | 96 | 1006.0 |
| 20260502052416 | 11 | 207 | 0.0 | 0.0 | 0.00 | 0.00 | 0.00 | 95 | 1006.0 |
| 20260502051914 | 11 | 207 | 0.0 | 0.0 | 0.00 | 0.00 | 0.00 | 95 | 1005.9 |
| 20260502051412 | 11 | 207 | 0.0 | 0.0 | 0.00 | 0.00 | 0.00 | 95 | 1006.1 |
| 20260502050909 | 11 | 198 | 0.0 | 0.0 | 0.00 | 0.00 | 0.00 | 95 | 1005.9 |
| 20260502050405 | 11 | 198 | 0.0 | 0.0 | 0.00 | 0.00 | 0.00 | 94 | 1005.7 |
| 20260502045902 | 11 | 198 | 0.0 | 0.0 | 0.00 | 0.00 | 0.00 | 94 | 1005.9 |
| 20260502045359 | 11 | 198 | 0.0 | 0.0 | 0.00 | 0.00 | 0.00 | 94 | 1005.7 |
| 20260502044856 | 11 | 198 | 0.0 | 0.0 | 0.00 | 0.00 | 0.00 | 93 | 1005.7 |
| 20260502044352 | 11 | 198 | 0.0 | 0.0 | 0.00 | 0.00 | 0.00 | 93 | 1005.7 |
| 20260502043849 | 12 | 198 | 0.0 | 0.0 | 0.00 | 0.00 | 0.00 | 92 | 1005.5 |
| 20260502043347 | 12 | 198 | 0.0 | 0.0 | 0.00 | 0.00 | 0.00 | 92 | 1005.7 |
| 20260502042846 | 12 | 198 | 0.0 | 0.0 | 0.00 | 0.00 | 0.00 | 92 | 1005.5 |
| 20260502042343 | 12 | 198 | 0.0 | 0.0 | 0.00 | 0.00 | 0.00 | 91 | 1005.3 |
| 20260502041841 | 12 | 198 | 0.0 | 0.0 | 0.00 | 0.00 | 0.00 | 90 | 1005.1 |
| 20260502041338 | 12 | 198 | 0.0 | 0.0 | 0.00 | 0.00 | 0.00 | 90 | 1005.4 |
| 20260502040835 | 12 | 198 | 0.0 | 0.0 | 0.00 | 0.00 | 0.00 | 89 | 1005.1 |
| 20260502040332 | 13 | 198 | 0.0 | 0.0 | 0.00 | 0.00 | 0.00 | 88 | 1005.0 |
| 20260502035828 | 13 | 198 | 0.0 | 0.0 | 0.00 | 0.00 | 0.00 | 88 | 1005.2 |
| 20260502035325 | 13 | 197 | 0.0 | 0.0 | 0.00 | 0.00 | 0.00 | 87 | 1005.2 |
| 20260502034822 | 13 | 198 | 0.0 | 0.0 | 0.00 | 0.00 | 0.00 | 87 | 1005.1 |
| 20260502034320 | 13 | 197 | 0.0 | 0.0 | 0.00 | 0.00 | 0.00 | 86 | 1004.9 |
| 20260502033819 | 13 | 197 | 0.0 | 0.0 | 0.00 | 0.00 | 0.00 | 85 | 1004.8 |
| 20260502033316 | 14 | 197 | 0.0 | 0.0 | 0.00 | 0.00 | 0.00 | 84 | 1004.9 |
| 20260502032812 | 14 | 197 | 0.0 | 0.0 | 0.00 | 0.00 | 0.00 | 83 | 1004.7 |
| 20260502032308 | 15 | 198 | 0.0 | 0.0 | 0.00 | 0.00 | 0.00 | 82 | 1004.8 |
| 20260502031806 | 15 | 177 | 0.0 | 1.6 | 0.00 | 0.00 | 0.00 | 81 | 1004.6 |
| 20260502031304 | 15 | 189 | 0.0 | 0.0 | 0.00 | 0.00 | 0.00 | 80 | 1004.7 |
| 20260502030803 | 15 | 185 | 0.0 | 0.0 | 0.00 | 0.00 | 0.00 | 80 | 1004.6 |
| 20260502030300 | 16 | 192 | 0.0 | 0.0 | 0.00 | 0.00 | 0.00 | 79 | 1004.7 |
| 20260502025757 | 16 | 203 | 0.0 | 0.0 | 0.00 | 0.00 | 0.00 | 78 | 1004.5 |
| 20260502025255 | 16 | 197 | 0.0 | 0.0 | 0.00 | 0.00 | 0.00 | 77 | 1004.6 |
| 20260502024753 | 16 | 191 | 0.0 | 0.0 | 0.00 | 0.00 | 0.00 | 76 | 1004.4 |
| 20260502024250 | 17 | 203 | 0.0 | 0.0 | 0.00 | 0.00 | 0.00 | 76 | 1004.4 |
| 20260502023748 | 17 | 196 | 0.0 | 0.0 | 0.00 | 0.00 | 0.00 | 75 | 1004.3 |
| 20260502023245 | 17 | 207 | 0.0 | 1.6 | 0.00 | 0.00 | 0.00 | 72 | 1004.2 |
| 20260502022743 | 18 | 206 | 1.6 | 4.8 | 0.00 | 0.00 | 0.00 | 72 | 1004.2 |
| 20260502022239 | 18 | 185 | 0.0 | 1.6 | 0.00 | 0.00 | 0.00 | 73 | 1004.1 |
| 20260502021736 | 18 | 200 | 0.0 | 1.6 | 0.00 | 0.00 | 0.00 | 70 | 1003.9 |
| 20260502021234 | 19 | 205 | 0.0 | 0.0 | 0.00 | 0.00 | 0.00 | 70 | 1003.8 |
| 20260502020731 | 20 | 204 | 1.6 | 3.2 | 0.00 | 0.00 | 0.00 | 67 | 1004.1 |
| 20260502020228 | 20 | 348 | 1.6 | 1.6 | 0.00 | 0.00 | 0.00 | 67 | 1004.1 |
| 20260502015726 | 20 | 283 | 1.6 | 3.2 | 0.00 | 0.00 | 0.00 | 67 | 1003.9 |
| 20260502015222 | 20 | 101 | 1.6 | 3.2 | 0.00 | 0.00 | 0.00 | 67 | 1003.7 |
| 20260502014720 | 21 | 194 | 0.0 | 1.6 | 0.00 | 0.00 | 0.00 | 63 | 1003.8 |
| 20260502014216 | 21 | 180 | 0.0 | 3.2 | 0.00 | 0.00 | 0.00 | 63 | 1003.7 |
| 20260502013713 | 21 | 273 | 1.6 | 1.6 | 0.00 | 0.00 | 0.00 | 62 | 1003.7 |
| 20260502013208 | 22 | 203 | 0.0 | 1.6 | 0.00 | 0.00 | 0.00 | 60 | 1003.7 |
| 20260502012705 | 22 | 285 | 3.2 | 3.2 | 0.00 | 0.00 | 0.00 | 58 | 1003.7 |
| 20260502012203 | 22 | 260 | 0.0 | 3.2 | 0.00 | 0.00 | 0.00 | 57 | 1003.8 |
| 20260502011659 | 23 | 244 | 3.2 | 4.8 | 0.00 | 0.00 | 0.00 | 56 | 1003.7 |
| 20260502011155 | 23 | 17 | 1.6 | 3.2 | 0.00 | 0.00 | 0.00 | 57 | 1003.7 |
| 20260502010653 | 23 | 258 | 3.2 | 4.8 | 0.00 | 0.00 | 0.00 | 56 | 1003.6 |
| 20260502010149 | 23 | 256 | 0.0 | 1.6 | 0.00 | 0.00 | 0.00 | 57 | 1003.7 |
| 20260502005647 | 24 | 219 | 1.6 | 1.6 | 0.00 | 0.00 | 0.00 | 54 | 1003.5 |
| 20260502005144 | 24 | 132 | 0.0 | 3.2 | 0.00 | 0.00 | 0.00 | 55 | 1003.5 |
| 20260502004640 | 24 | 278 | 0.0 | 4.8 | 0.00 | 0.00 | 0.00 | 54 | 1003.6 |
| 20260502004137 | 24 | 11 | 3.2 | 8.0 | 0.00 | 0.00 | 0.00 | 55 | 1003.5 |
| 20260502003635 | 25 | 233 | 1.6 | 3.2 | 0.00 | 0.00 | 0.00 | 53 | 1003.6 |
| 20260502003132 | 25 | 224 | 0.0 | 9.7 | 0.00 | 0.00 | 0.00 | 54 | 1003.4 |
| 20260502002628 | 25 | 80 | 1.6 | 3.2 | 0.00 | 0.00 | 0.00 | 53 | 1003.4 |
| 20260502002126 | 25 | 238 | 3.2 | 3.2 | 0.00 | 0.00 | 0.00 | 53 | 1003.6 |
| 20260502001623 | 25 | 235 | 0.0 | 4.8 | 0.00 | 0.00 | 0.00 | 53 | 1003.7 |
| 20260502001120 | 25 | 145 | 3.2 | 4.8 | 0.00 | 0.00 | 0.00 | 53 | 1003.6 |
| 20260502000618 | 25 | 206 | 0.0 | 1.6 | 0.00 | 0.00 | 0.00 | 54 | 1003.8 |
| 20260502000115 | 24 | 7 | 8.0 | 9.7 | 0.00 | 0.00 | 0.00 | 55 | 1003.4 |
| 20260501235611 | 25 | 259 | 4.8 | 4.8 | 0.00 | 0.00 | 0.00 | 52 | 1003.4 |
| 20260501235107 | 25 | 252 | 3.2 | 3.2 | 0.00 | 0.00 | 0.00 | 52 | 1003.6 |
| 20260501234603 | 25 | 177 | 1.6 | 3.2 | 0.00 | 0.00 | 0.00 | 54 | 1003.7 |
| 20260501234101 | 25 | 190 | 4.8 | 9.7 | 0.00 | 0.00 | 0.00 | 53 | 1003.7 |
| 20260501233559 | 26 | 113 | 4.8 | 8.0 | 0.00 | 0.00 | 0.00 | 51 | 1003.8 |
| 20260501233055 | 26 | 131 | 1.6 | 4.8 | 0.00 | 0.00 | 0.00 | 50 | 1003.6 |
| 20260501232551 | 26 | 201 | 1.6 | 8.0 | 0.00 | 0.00 | 0.00 | 51 | 1003.9 |
| 20260501232049 | 26 | 160 | 3.2 | 8.0 | 0.00 | 0.00 | 0.00 | 50 | 1004.0 |
| 20260501231547 | 26 | 233 | 3.2 | 4.8 | 0.00 | 0.00 | 0.00 | 51 | 1003.7 |
| 20260501231045 | 27 | 204 | 3.2 | 3.2 | 0.00 | 0.00 | 0.00 | 49 | 1003.8 |
| 20260501230543 | 26 | 215 | 0.0 | 8.0 | 0.00 | 0.00 | 0.00 | 50 | 1003.7 |
| 20260501230041 | 26 | 197 | 4.8 | 4.8 | 0.00 | 0.00 | 0.00 | 51 | 1004.0 |
| 20260501225538 | 26 | 194 | 4.8 | 8.0 | 0.00 | 0.00 | 0.00 | 48 | 1004.0 |
| 20260501225034 | 27 | 209 | 0.0 | 1.6 | 0.00 | 0.00 | 0.00 | 50 | 1004.2 |
| 20260501224532 | 26 | 202 | 1.6 | 3.2 | 0.00 | 0.00 | 0.00 | 53 | 1004.3 |
| 20260501224029 | 26 | 214 | 3.2 | 11.3 | 0.00 | 0.00 | 0.00 | 50 | 1004.3 |
| 20260501223525 | 26 | 217 | 1.6 | 4.8 | 0.00 | 0.00 | 0.00 | 53 | 1004.5 |
| 20260501223021 | 27 | 217 | 3.2 | 8.0 | 0.00 | 0.00 | 0.00 | 49 | 1004.4 |
| 20260501222518 | 27 | 155 | 0.0 | 1.6 | 0.00 | 0.00 | 0.00 | 51 | 1004.7 |
| 20260501222015 | 26 | 209 | 0.0 | 8.0 | 0.00 | 0.00 | 0.00 | 52 | 1004.6 |
| 20260501221511 | 26 | 225 | 0.0 | 3.2 | 0.00 | 0.00 | 0.00 | 49 | 1004.6 |
| 20260501221009 | 26 | 14 | 1.6 | 8.0 | 0.00 | 0.00 | 0.00 | 47 | 1005.0 |
| 20260501220507 | 26 | 218 | 0.0 | 3.2 | 0.00 | 0.00 | 0.00 | 50 | 1004.9 |
| 20260501220003 | 26 | 193 | 0.0 | 1.6 | 0.00 | 0.00 | 0.00 | 50 | 1005.0 |
| 20260501215459 | 26 | 179 | 1.6 | 4.8 | 0.00 | 0.00 | 0.00 | 47 | 1004.9 |
| 20260501214955 | 26 | 145 | 1.6 | 4.8 | 0.00 | 0.00 | 0.00 | 49 | 1004.9 |
| 20260501214450 | 26 | 190 | 0.0 | 1.6 | 0.00 | 0.00 | 0.00 | 49 | 1005.0 |
| 20260501213946 | 26 | 146 | 3.2 | 9.7 | 0.00 | 0.00 | 0.00 | 49 | 1005.0 |
| 20260501213443 | 26 | 39 | 3.2 | 4.8 | 0.00 | 0.00 | 0.00 | 48 | 1005.0 |
| 20260501212938 | 26 | 217 | 1.6 | 3.2 | 0.00 | 0.00 | 0.00 | 49 | 1005.3 |
| 20260501212436 | 26 | 95 | 0.0 | 9.7 | 0.00 | 0.00 | 0.00 | 50 | 1005.1 |
| 20260501211932 | 26 | 214 | 1.6 | 4.8 | 0.00 | 0.00 | 0.00 | 49 | 1005.3 |
| 20260501211430 | 26 | 222 | 1.6 | 3.2 | 0.00 | 0.00 | 0.00 | 47 | 1005.3 |
| 20260501210927 | 26 | 209 | 1.6 | 3.2 | 0.00 | 0.00 | 0.00 | 48 | 1005.3 |
| 20260501210424 | 26 | 182 | 1.6 | 1.6 | 0.00 | 0.00 | 0.00 | 47 | 1005.4 |
| 20260501205920 | 26 | 349 | 3.2 | 3.2 | 0.00 | 0.00 | 0.00 | 47 | 1005.3 |
| 20260501205417 | 26 | 225 | 0.0 | 3.2 | 0.00 | 0.00 | 0.00 | 49 | 1005.2 |
| 20260501204915 | 25 | 178 | 1.6 | 3.2 | 0.00 | 0.00 | 0.00 | 49 | 1005.5 |
| 20260501204410 | 25 | 236 | 0.0 | 1.6 | 0.00 | 0.00 | 0.00 | 49 | 1005.4 |
| 20260501203906 | 25 | 17 | 4.8 | 8.0 | 0.00 | 0.00 | 0.00 | 50 | 1005.3 |
| 20260501203404 | 25 | 199 | 1.6 | 4.8 | 0.00 | 0.00 | 0.00 | 50 | 1005.6 |
| 20260501202901 | 25 | 217 | 0.0 | 3.2 | 0.00 | 0.00 | 0.00 | 52 | 1005.5 |
| 20260501202358 | 25 | 293 | 0.0 | 4.8 | 0.00 | 0.00 | 0.00 | 49 | 1005.8 |
| 20260501201855 | 25 | 98 | 3.2 | 4.8 | 0.00 | 0.00 | 0.00 | 50 | 1005.8 |
| 20260501201351 | 26 | 312 | 4.8 | 8.0 | 0.00 | 0.00 | 0.00 | 50 | 1005.7 |
| 20260501200848 | 25 | 170 | 0.0 | 3.2 | 0.00 | 0.00 | 0.00 | 50 | 1005.7 |
| 20260501200345 | 24 | 217 | 1.6 | 1.6 | 0.00 | 0.00 | 0.00 | 50 | 1005.7 |
| 20260501195843 | 24 | 209 | 0.0 | 1.6 | 0.00 | 0.00 | 0.00 | 53 | 1005.7 |
| 20260501195338 | 24 | 164 | 1.6 | 3.2 | 0.00 | 0.00 | 0.00 | 50 | 1005.8 |
| 20260501194835 | 23 | 113 | 1.6 | 3.2 | 0.00 | 0.00 | 0.00 | 53 | 1005.9 |
| 20260501194331 | 24 | 210 | 0.0 | 4.8 | 0.00 | 0.00 | 0.00 | 50 | 1006.0 |
| 20260501193827 | 24 | 164 | 0.0 | 9.7 | 0.00 | 0.00 | 0.00 | 51 | 1006.0 |
| 20260501193326 | 24 | 208 | 0.0 | 8.0 | 0.00 | 0.00 | 0.00 | 54 | 1006.1 |
| 20260501192823 | 23 | 78 | 1.6 | 3.2 | 0.00 | 0.00 | 0.00 | 53 | 1006.1 |
| 20260501192320 | 23 | 231 | 1.6 | 8.0 | 0.00 | 0.00 | 0.00 | 54 | 1006.2 |
| 20260501191817 | 23 | 184 | 1.6 | 1.6 | 0.00 | 0.00 | 0.00 | 53 | 1006.1 |
| 20260501191314 | 23 | 119 | 1.6 | 3.2 | 0.00 | 0.00 | 0.00 | 52 | 1006.2 |
| 20260501190810 | 22 | 335 | 3.2 | 4.8 | 0.00 | 0.00 | 0.00 | 52 | 1006.2 |
| 20260501190306 | 22 | 187 | 3.2 | 3.2 | 0.00 | 0.00 | 0.00 | 52 | 1006.5 |
| 20260501185757 | 22 | 259 | 4.8 | 4.8 | 0.00 | 0.00 | 0.00 | 51 | 1006.6 |
| 20260501185253 | 22 | 256 | 1.6 | 4.8 | 0.00 | 0.00 | 0.00 | 51 | 1006.5 |
| 20260501184749 | 22 | 137 | 1.6 | 3.2 | 0.00 | 0.00 | 0.00 | 53 | 1006.6 |
| 20260501184244 | 22 | 193 | 1.6 | 1.6 | 0.00 | 0.00 | 0.00 | 52 | 1006.6 |
| 20260501183740 | 22 | 193 | 1.6 | 1.6 | 0.00 | 0.00 | 0.00 | 54 | 1006.9 |
| 20260501183238 | 21 | 230 | 0.0 | 3.2 | 0.00 | 0.00 | 0.00 | 54 | 1006.6 |
| 20260501182733 | 21 | 163 | 1.6 | 3.2 | 0.00 | 0.00 | 0.00 | 57 | 1006.9 |
| 20260501182231 | 21 | 215 | 1.6 | 1.6 | 0.00 | 0.00 | 0.00 | 56 | 1007.0 |
| 20260501181727 | 21 | 193 | 0.0 | 1.6 | 0.00 | 0.00 | 0.00 | 56 | 1006.9 |
| 20260501181225 | 21 | 190 | 0.0 | 1.6 | 0.00 | 0.00 | 0.00 | 56 | 1007.1 |
| 20260501180723 | 20 | 207 | 1.6 | 3.2 | 0.00 | 0.00 | 0.00 | 56 | 1007.3 |
| 20260501180218 | 20 | 155 | 1.6 | 1.6 | 0.00 | 0.00 | 0.00 | 57 | 1007.1 |